{"data":{"norad_id":67056,"epoch":"2026-09-20T08:44:21.110208Z","epoch_age_seconds":93432,"freshness":"FRESH","line1":"1 67056U 25294AC  26263.36413322  .00007820  00000+0  29339-3 0  9994","line2":"2 67056  43.0020  18.5246 0001293 273.3736  86.6967 15.27582180 44578","mean_motion":15.2758218,"eccentricity":0.0001293,"inclination_deg":43.002,"raan_deg":18.5246,"arg_perigee_deg":273.3736,"mean_anomaly_deg":86.6967,"bstar":0.00029339,"rev_number":4457,"period_min":94.266614186348,"perigee_km":482.15541782498,"apogee_km":483.92971886135,"semimajor_km":6861.1795683432,"source":"CELESTRAK","updated_at":"2026-09-21T09:00:36.096473Z"}}